Location: *
(47.7167°N, 1.7333°W)
Time: 02:40:54
(UTC+00:00)

Cosmos 2239 Rocket - Pass Details

Date: 09 April 2020
Orbit: 955 x 990 km, 82.9° (Epoch: 25 May)

Event Time Altitude Azimuth Distance (km) Brightness Sun altitude
Rises 21:56:08 0° 350° (N) 3,680 8.5 -27.1°
Reaches altitude 10° 21:58:38 10° 349° (N) 2,733 7.6 -27.3°
Maximum altitude 22:04:54 81° 264° (W) 999 4.4 -28.0°
Enters shadow 22:05:41 69° 198° (SSW) 1,047 4.4 -28.0°
